TimeCST,TemperatureF,Dew PointF,Humidity,Sea Level PressureIn,VisibilityMPH,Wind Direction,Wind SpeedMPH,Gust SpeedMPH,PrecipitationIn,Events,Conditions,WindDirDegrees,DateUTC
12:15 AM,24.1,21.0,88,30.50,10.0,Calm,Calm,-,N/A,,Clear,0,2013-01-10 06:15:00
12:35 AM,23.9,21.4,90,30.50,10.0,Calm,Calm,-,N/A,,Clear,0,2013-01-10 06:35:00
12:55 AM,22.6,20.3,91,30.50,10.0,Calm,Calm,-,N/A,,Clear,0,2013-01-10 06:55:00
2:15 AM,22.8,21.2,93,30.50,10.0,Calm,Calm,-,N/A,,Clear,0,2013-01-10 08:15:00
2:35 AM,22.5,20.8,93,30.50,10.0,ENE,4.6,-,N/A,,Clear,60,2013-01-10 08:35:00
2:55 AM,23.9,21.9,92,30.48,10.0,NNE,5.8,-,N/A,,Clear,20,2013-01-10 08:55:00
3:15 AM,24.1,21.2,89,30.48,10.0,NE,3.5,-,N/A,,Clear,40,2013-01-10 09:15:00
3:35 AM,24.6,21.9,89,30.49,10.0,ESE,4.6,-,N/A,,Clear,110,2013-01-10 09:35:00
3:55 AM,22.8,19.9,89,30.48,10.0,ESE,3.5,-,N/A,,Clear,110,2013-01-10 09:55:00
4:15 AM,23.5,21.2,91,30.48,10.0,East,3.5,-,N/A,,Clear,80,2013-01-10 10:15:00
4:35 AM,22.6,20.8,93,30.48,10.0,ENE,4.6,-,N/A,,Clear,60,2013-01-10 10:35:00
4:55 AM,23.7,21.0,89,30.48,10.0,Calm,Calm,-,N/A,,Clear,0,2013-01-10 10:55:00
5:15 AM,24.6,21.2,87,30.47,10.0,Calm,Calm,-,N/A,,Clear,0,2013-01-10 11:15:00
5:35 AM,23.2,21.4,93,30.47,10.0,East,3.5,-,N/A,,Clear,100,2013-01-10 11:35:00
5:55 AM,23.7,21.6,91,30.47,10.0,ENE,3.5,-,N/A,,Clear,60,2013-01-10 11:55:00
6:35 AM,24.6,22.1,90,30.46,10.0,NE,4.6,-,N/A,,Clear,50,2013-01-10 12:35:00
6:55 AM,25.5,22.6,89,30.46,10.0,ENE,4.6,-,N/A,,Clear,70,2013-01-10 12:55:00
7:15 AM,26.2,22.8,87,30.46,10.0,ENE,5.8,-,N/A,,Clear,60,2013-01-10 13:15:00
7:35 AM,26.6,23.0,86,30.46,10.0,ENE,5.8,-,N/A,,Clear,60,2013-01-10 13:35:00
7:55 AM,27.5,23.9,86,30.45,10.0,East,5.8,-,N/A,,Clear,80,2013-01-10 13:55:00
8:15 AM,29.1,25.0,85,30.45,10.0,ENE,5.8,-,N/A,,Clear,70,2013-01-10 14:15:00
8:35 AM,30.4,25.9,83,30.44,10.0,East,6.9,-,N/A,,Clear,80,2013-01-10 14:35:00
8:55 AM,32.5,25.5,75,30.42,10.0,East,10.4,-,N/A,,Clear,100,2013-01-10 14:55:00
9:15 AM,33.8,26.1,73,30.42,10.0,East,11.5,-,N/A,,Clear,100,2013-01-10 15:15:00
9:35 AM,34.7,26.4,72,30.42,10.0,East,12.7,-,N/A,,Clear,100,2013-01-10 15:35:00
9:55 AM,35.6,26.4,69,30.41,10.0,East,10.4,-,N/A,,Clear,100,2013-01-10 15:55:00
10:15 AM,36.9,26.4,66,30.40,10.0,East,11.5,-,N/A,,Clear,90,2013-01-10 16:15:00
10:35 AM,37.6,26.2,64,30.39,10.0,East,12.7,-,N/A,,Clear,100,2013-01-10 16:35:00
10:55 AM,38.1,26.1,62,30.37,10.0,East,12.7,-,N/A,,Clear,100,2013-01-10 16:55:00
11:15 AM,38.8,25.9,60,30.36,10.0,East,11.5,-,N/A,,Clear,100,2013-01-10 17:15:00
11:35 AM,40.5,26.6,58,30.34,10.0,East,15.0,-,N/A,,Clear,100,2013-01-10 17:35:00
11:55 AM,41.5,26.2,55,30.31,10.0,East,12.7,19.6,N/A,,Clear,100,2013-01-10 17:55:00
12:15 PM,41.5,26.1,54,30.30,10.0,East,11.5,-,N/A,,Clear,100,2013-01-10 18:15:00
12:35 PM,41.9,26.1,53,30.28,10.0,East,15.0,-,N/A,,Clear,100,2013-01-10 18:35:00
12:55 PM,42.1,25.2,51,30.27,10.0,East,12.7,-,N/A,,Scattered Clouds,100,2013-01-10 18:55:00
1:15 PM,41.5,25.3,53,30.26,10.0,East,16.1,-,N/A,,Scattered Clouds,100,2013-01-10 19:15:00
1:35 PM,41.9,25.3,52,30.23,10.0,East,17.3,24.2,N/A,,Mostly Cloudy,100,2013-01-10 19:35:00
1:55 PM,41.9,25.7,53,30.22,10.0,East,19.6,-,N/A,,Mostly Cloudy,100,2013-01-10 19:55:00
2:15 PM,41.0,27.7,59,30.22,10.0,ESE,17.3,-,N/A,,Light Drizzle,110,2013-01-10 20:15:00
2:35 PM,40.8,28.0,60,30.20,10.0,ESE,17.3,25.3,N/A,,Overcast,110,2013-01-10 20:35:00
2:55 PM,40.3,28.4,63,30.20,10.0,ESE,17.3,23.0,N/A,,Overcast,110,2013-01-10 20:55:00
3:15 PM,40.1,28.6,63,30.19,10.0,ESE,18.4,-,N/A,,Overcast,110,2013-01-10 21:15:00
3:35 PM,39.6,29.5,67,30.17,10.0,East,16.1,20.7,N/A,,Overcast,100,2013-01-10 21:35:00
3:55 PM,38.8,30.9,73,30.17,10.0,ESE,15.0,-,N/A,,Light Drizzle,110,2013-01-10 21:55:00
4:15 PM,37.9,32.0,79,30.16,7.0,ESE,15.0,23.0,N/A,Rain,Rain,110,2013-01-10 22:15:00
4:35 PM,37.0,32.9,85,30.17,7.0,ESE,13.8,17.3,N/A,Rain,Rain,120,2013-01-10 22:35:00
4:55 PM,36.5,34.2,91,30.14,4.0,ESE,17.3,25.3,0.02,Rain,Light Rain,110,2013-01-10 22:55:00
5:15 PM,36.5,34.3,92,30.13,10.0,ESE,15.0,23.0,N/A,Rain,Light Rain,110,2013-01-10 23:15:00
5:35 PM,36.5,34.3,92,30.12,7.0,ESE,19.6,23.0,0.01,Rain,Light Rain,110,2013-01-10 23:35:00
5:55 PM,36.5,34.7,93,30.10,7.0,ESE,19.6,24.2,0.01,Rain,Light Rain,110,2013-01-10 23:55:00
6:15 PM,36.5,34.9,94,30.09,7.0,ESE,17.3,24.2,0.01,,Overcast,110,2013-01-11 00:15:00
6:35 PM,36.9,35.6,95,30.07,7.0,ESE,15.0,24.2,0.01,,Overcast,110,2013-01-11 00:35:00
6:55 PM,36.9,36.0,97,30.07,5.0,ESE,12.7,-,0.01,Rain,Light Rain,110,2013-01-11 00:55:00
7:15 PM,37.0,36.5,98,30.05,5.0,ESE,13.8,-,N/A,Rain,Light Rain,110,2013-01-11 01:15:00
7:35 PM,37.0,36.5,98,30.05,4.0,ESE,13.8,-,0.02,Rain,Light Rain,110,2013-01-11 01:35:00
7:55 PM,37.4,36.7,97,30.04,5.0,ESE,16.1,-,0.03,Rain,Light Rain,110,2013-01-11 01:55:00
8:15 PM,37.4,37.0,99,30.03,3.0,ESE,16.1,-,0.01,Rain,Rain,120,2013-01-11 02:15:00
8:35 PM,37.4,37.0,99,30.01,2.0,ESE,16.1,-,0.13,Rain,Light Rain,110,2013-01-11 02:35:00
8:55 PM,37.6,37.4,99,30.00,3.0,ESE,15.0,-,0.18,Rain,Rain,120,2013-01-11 02:55:00
9:15 PM,37.8,37.4,99,29.99,4.0,ESE,12.7,-,N/A,Rain,Light Rain,120,2013-01-11 03:15:00
9:35 PM,38.3,38.1,99,29.98,4.0,ESE,16.1,-,N/A,,Overcast,110,2013-01-11 03:35:00
9:55 PM,38.3,38.3,100,29.97,1.8,ESE,11.5,-,N/A,,Overcast,120,2013-01-11 03:55:00
10:15 PM,39.4,39.4,100,29.96,1.5,ESE,12.7,-,N/A,,Drizzle,120,2013-01-11 04:15:00
10:35 PM,40.8,40.6,99,29.95,2.5,SE,13.8,-,0.02,Rain,Light Rain,130,2013-01-11 04:35:00
10:55 PM,40.5,40.3,99,29.94,2.5,ESE,9.2,-,0.04,Rain,Light Rain,120,2013-01-11 04:55:00
11:15 PM,42.1,42.1,100,29.92,2.5,SE,10.4,-,0.02,Rain,Light Rain,130,2013-01-11 05:15:00
11:35 PM,43.2,43.0,99,29.90,3.0,ESE,10.4,-,0.03,Rain,Light Rain,120,2013-01-11 05:35:00
11:55 PM,42.8,42.8,100,29.89,2.0,ESE,10.4,-,0.04,Rain,Rain,120,2013-01-11 05:55:00